STARLINK-31587 (59570 NORAD) Tracking and Keplerian Element Data

This shows tracking and keplerian element data for the satellite.

Feedback or suggestion? Click here.




ElementValue
Catalog59570
NameSTARLINK-31587
Epoch Orbit829
Epoch Day160.10366359
Epoch Year2024
RAAN54.1709
Inclination43.0013
Eccentricity0.0001594
Argument of Perigee281.1863
Mean Anonmoly78.8814
Mean Motion15.40704887
Decay Rate1.19E-05
L11 59570U 24076G 24160.10366359 .00001190 00000+0 35732-4 0 9995
L22 59570 43.0013 54.1709 0001594 281.1863 78.8814 15.40704887 8292



Live tracking and technical data element details for STARLINK-31587 (NORAD 59570). STARLINK-31587 can be tracked NOW for your location showing map with azimuth and elevation plus other details from your city location.







IsCatalogInMostPopularTable: catalog: 59570, numindb: 11
Update: records affected: 1



GetName: 59570 STARLINK-31587

Hit Count: updated at: Fri, 14 Jun 2024 19:29:23 GMT